sat.trackr.live / text

‹ back to catalog

QIANFAN-156

NORAD 69115 · 2026-108M

PAYLOAD ACTIVE UNKNOWN

§ Identity

Operator
Country
PRC
Launch date
2026-05-17
Launch site
WSC
Launch vehicle
Mass (kg)
RCS (m²)

External: N2YO · Heavens-Above · Gunter

§ Orbital elements

Epoch: 2026-09-20T03:11:52.920096Z

Period
106.59 min
Inclination
89.0209°
Eccentricity
0.0001920
Mean motion
13.51023775 rev/d
Perigee alt
1,067.1 km
Apogee alt
1,069.9 km
Semi-major
7,446.6 km
B*
1.4757e-4
RAAN
12.5460°
Arg perigee
108.3575°
Mean anomaly
251.7785°
Rev number
1,728

§ Raw data

QIANFAN-1561 69115U 26108M   26263.13325139  .00000107  00000+0  14757-3 0  99992 69115  89.0209  12.5460 0001920 108.3575 251.7785 13.51023775 17288

JSON: /api/v1/satellites/69115 · /tle

For live sub-satellite position, see the globe view (requires WebGL).

§ Visibility from observer

Set your observer location to see the next 7 days of passes ≥ 10°. The values pass through the URL so the page stays shareable.

No JS? Fill the form by hand. The geolocation button needs JavaScript.